Total_Precipitation_Accumulation
1.13 1.24 1.17 0.98 0.95 0.92 1.11 1.39 1.55 1.41 1.28 1.19 1.20 1.22 1.20 1.24 1.38 1.27 1.33 1.35 1.24 1.13 1.03 0.96 0.94 0.91 0.92 0.99 1.06 1.08 1.09 1.17 1.34 1.53 1.74 1.98 2.26 2.54
1.30 1.29 1.22 1.11 1.15 1.01 1.06 1.28 1.49 1.63 1.53 1.16 1.20 1.21 1.29 1.18 1.37 1.28 1.32 1.37 1.23 1.13 1.03 0.98 0.95 0.92 0.91 0.92 0.97 1.04 1.05 1.04 1.09 1.18 1.27 1.39 1.50 1.67
1.50 1.42 1.37 1.36 1.35 1.23 1.25 1.32 1.40 1.59 1.61 1.34 1.28 1.40 1.47 1.40 1.43 1.39 1.31 1.34 1.26 1.20 1.05 0.98 0.94 0.91 0.93 0.91 0.91 0.92 0.96 0.98 1.00 1.04 1.09 1.14 1.13 1.14
1.88 1.92 1.71 1.62 1.59 1.45 1.43 1.39 1.40 1.53 1.61 1.56 1.47 1.53 1.54 1.51 1.49 1.32 1.12 1.07 1.13 1.24 1.16 1.05 0.99 0.93 0.89 0.88 0.88 0.88 0.89 0.91 0.95 0.95 0.96 0.99 1.01 1.00
1.74 1.93 1.93 1.96 1.78 1.71 1.62 1.53 1.49 1.45 1.57 1.57 1.50 1.64 1.67 1.66 1.54 1.24 1.14 1.17 1.05 1.20 1.19 1.02 0.92 0.89 0.85 0.81 0.79 0.81 0.81 0.82 0.85 0.87 0.86 0.83 0.83 0.83
1.56 1.62 1.73 1.95 1.93 1.88 1.76 1.71 1.70 1.70 1.73 1.70 1.65 1.75 1.92 1.98 1.78 1.44 1.29 1.24 1.14 1.00 1.05 0.95 0.90 0.87 0.83 0.78 0.75 0.73 0.74 0.77 0.79 0.80 0.81 0.81 0.77 0.74
1.59 1.52 1.50 1.68 1.76 1.77 1.62 1.65 1.76 1.82 1.85 1.84 1.81 1.88 1.97 2.07 1.80 1.54 1.35 1.28 1.21 1.06 0.97 0.86 0.84 0.82 0.87 0.90 0.86 0.78 0.74 0.74 0.76 0.78 0.78 0.77 0.76 0.75
1.84 1.76 1.63 1.52 1.52 1.56 1.61 1.65 1.69 1.71 1.77 1.82 1.78 1.82 1.89 1.95 2.00 1.80 1.54 1.34 1.22 1.10 1.06 0.96 0.91 0.88 0.81 0.77 0.86 0.83 0.76 0.73 0.72 0.72 0.72 0.75 0.73 0.69
1.82 1.80 1.60 1.45 1.51 1.46 1.61 1.65 1.57 1.52 1.48 1.53 1.59 1.66 1.97 2.17 2.33 2.08 1.82 1.64 1.43 1.28 1.18 1.02 0.94 0.88 0.79 0.77 0.87 0.76 0.70 0.67 0.65 0.65 0.65 0.65 0.68 0.69
1.45 1.56 1.53 1.43 1.42 1.45 1.38 1.26 1.20 1.21 1.19 1.13 1.19 1.39 1.69 2.12 2.36 2.36 2.28 2.06 1.82 1.48 1.23 1.06 0.89 0.83 0.78 0.74 0.83 0.79 0.72 0.68 0.64 0.61 0.57 0.55 0.58 0.63
1.24 1.24 1.24 1.17 1.23 1.22 1.13 1.01 0.95 0.95 0.96 0.97 0.99 1.15 1.38 1.67 2.02 2.17 2.12 1.91 1.64 1.32 1.10 0.96 0.85 0.83 0.77 0.71 0.73 0.83 0.77 0.72 0.70 0.69 0.68 0.64 0.63 0.68
1.23 1.26 1.35 1.19 1.08 0.94 0.90 0.91 0.82 0.78 0.82 0.82 0.83 0.89 1.01 1.22 1.60 1.72 1.71 1.70 1.52 1.28 1.02 0.94 0.86 0.93 0.88 0.76 0.69 0.70 0.71 0.78 0.79 0.78 0.77 0.77 0.81 0.74
1.00 1.00 1.11 1.12 0.93 0.78 0.78 0.77 0.72 0.69 0.71 0.70 0.70 0.74 0.85 1.00 1.17 1.43 1.52 1.45 1.35 1.14 0.94 0.95 0.88 0.88 0.87 0.75 0.69 0.66 0.63 0.62 0.68 0.76 0.83 0.85 0.87 0.81
0.98 0.99 1.09 1.12 0.90 0.76 0.66 0.62 0.58 0.52 0.56 0.65 0.65 0.66 0.74 0.85 1.04 1.26 1.46 1.46 1.34 1.22 1.15 1.13 1.05 0.98 0.91 0.79 0.67 0.61 0.63 0.63 0.66 0.69 0.73 0.88 0.87 0.87
1.04 1.24 1.24 1.16 0.98 0.80 0.73 0.71 0.60 0.51 0.57 0.63 0.65 0.63 0.67 0.79 1.03 1.28 1.48 1.59 1.51 1.35 1.25 1.17 1.12 1.08 1.08 0.91 0.76 0.69 0.69 0.70 0.67 0.68 0.70 0.74 0.76 0.80
1.05 1.22 1.30 1.31 1.21 1.05 0.96 0.87 0.70 0.66 0.70 0.72 0.75 0.79 0.84 0.94 1.10 1.21 1.35 1.49 1.53 1.39 1.25 1.19 1.16 1.20 1.17 1.04 0.91 0.80 0.73 0.71 0.69 0.71 0.74 0.75 0.75 0.75
0.99 1.20 1.36 1.46 1.48 1.43 1.29 1.16 1.03 0.91 0.83 0.84 0.90 0.90 0.92 0.98 1.06 1.19 1.33 1.38 1.35 1.19 1.11 1.12 1.15 1.19 1.19 1.12 0.95 0.74 0.67 0.62 0.61 0.72 0.83 0.84 0.80 0.78
0.89 1.09 1.32 1.50 1.56 1.64 1.61 1.50 1.30 1.13 1.05 1.03 1.00 0.99 1.00 0.98 1.03 1.16 1.32 1.39 1.30 1.16 1.07 1.02 1.13 1.24 1.23 1.08 0.91 0.74 0.65 0.62 0.61 0.70 0.80 0.83 0.72 0.64
0.83 0.96 1.07 1.21 1.38 1.55 1.62 1.60 1.44 1.30 1.30 1.27 1.17 1.12 1.14 1.13 1.12 1.20 1.33 1.41 1.40 1.28 1.19 1.13 1.15 1.19 1.13 0.90 0.68 0.63 0.65 0.62 0.64 0.66 0.68 0.71 0.64 0.57
0.71 0.80 0.89 1.00 1.18 1.42 1.57 1.62 1.57 1.46 1.44 1.45 1.40 1.33 1.31 1.26 1.19 1.16 1.26 1.36 1.39 1.37 1.30 1.21 1.07 1.03 1.02 0.94 0.83 0.68 0.64 0.73 0.76 0.74 0.69 0.70 0.69 0.70
0.75 0.79 0.83 0.93 1.07 1.27 1.48 1.63 1.65 1.57 1.50 1.54 1.54 1.44 1.39 1.35 1.23 1.15 1.20 1.33 1.40 1.39 1.27 1.11 1.00 1.07 1.24 1.36 1.17 0.85 0.72 0.73 0.84 0.88 0.90 0.95 0.88 0.82
0.85 0.85 0.90 0.99 1.13 1.34 1.52 1.60 1.62 1.58 1.53 1.55 1.53 1.45 1.39 1.36 1.26 1.21 1.21 1.27 1.29 1.30 1.27 1.25 1.36 1.42 1.41 1.37 1.13 0.89 0.82 0.83 0.90 0.97 0.96 0.93 0.90 0.82
0.91 0.88 0.90 0.99 1.15 1.34 1.46 1.57 1.60 1.60 1.58 1.54 1.51 1.44 1.39 1.38 1.36 1.33 1.28 1.29 1.33 1.37 1.49 1.53 1.50 1.48 1.37 1.29 1.21 1.11 1.02 1.02 1.06 1.04 0.90 0.79 0.74 0.72